Voltar ao catálogo

SL-16 DEB

AtivoLEO
NORAD 42252·DEBRIS·🇷🇺 Russia

Lançado Mar 26, 1993 de Baikonur Cosmodrome

Loading…

Próximas Passagens (próximas 24 horas)

TLE

ObsoletoSource: Space-Track

Época: Sep 5, 2026, 21:20 UTC

1 42252U 93016DG  26248.88931684  .00009836  00000-0  20255-2 0  9995
2 42252  70.9683  66.9034 0072560 240.2175 119.1742 14.59042123111749

Acompanhe SL-16 DEB em tempo real com AllMySat

Download on the App Store